BREEZE-M DEB [TANK] (44459 NORAD) Tracking and Keplerian Element Data

This shows tracking and keplerian element data for the satellite.

Feedback or suggestion? Click here.




ElementValue
Catalog44459
NameBREEZE-M DEB [TANK]
Epoch Orbit10
Epoch Day229.72896742
Epoch Year2019
RAAN288.9204
Inclination48.7067
Eccentricity0.7229417
Argument of Perigee2.5803
Mean Anonmoly187.2706
Mean Motion2.27380691
Decay Rate2.9E-07
L11 44459U 19048C 19229.72896742 .00000029 00000-0 25697-3 0 9999
L22 44459 48.7067 288.9204 7229417 2.5803 187.2706 2.27380691 103

Live tracking and technical data element details for BREEZE-M DEB [TANK] (NORAD 44459). BREEZE-M DEB [TANK] can be tracked NOW for your location showing map with azimuth and elevation plus other details from your city location.

Track the satellite on the map from your city or location and see movement details for azimuth, elevation, latitude, longitude, range, height, and movement on the map or in text.







IsCatalogInMostPopularTable: catalog: 44459, numindb: 9
Update: records affected: 1



GetName: 44459 BREEZE-M DEB [TANK]

Hit Count: updated at: Thu, 19 Sep 2019 17:43:36 GMT